Other Public Products
Issued by NWS Grand Forks, ND

Home | Current Version | Previous Version | Text Only | Print | Product List | Glossary Off
Versions: 1 2 3 4 5 6 7 8 9 10 11 12 13 14 15 16 17 18 19 20 21 22 23 24 25 26 27 28 29 30 31 32 33 34 35 36 37 38 39 40 41 42 43 44 45 46 47 48 49 50

000
FPUS83 KFGF 232010
OPUFGF
PRAIRIE TO PINES WEATHER ROUNDUP
NATIONAL WEATHER SERVICE EASTERN NORTH DAKOTA/GRAND FORKS ND
300 PM CDT TUE MAY 23 2017

 **SATELLITE DATA USED TO AUGMENT SKY COVER AT AUTOMATED STATIONS**
 *****  WEATHER ACROSS EASTERN NORTH DAKOTA  *****

CITY           SKY/WX    TMP DP  RH WIND       PRES   REMARKS
GRAND FORKS    PTSUNNY   63  44  50 NE18G25   29.98F
GRAND FORKS AF PTSUNNY   61  42  49 NE18G25   29.99F
GRAND CITY NWS NOT AVBL
BUXTON         NOT AVBL
DEVILS LAKE    CLOUDY    60  39  45 NE18      30.04S
FARGO          CLOUDY    54  44  69 N21G28    29.96R
WAHPETON ARPT  CLOUDY    55  45  67 N18       29.92S
$$

 *****  WEATHER ACROSS CENTRAL AND WESTERN NORTH DAKOTA  *****

CITY           SKY/WX    TMP DP  RH WIND       PRES   REMARKS
JAMESTOWN      CLOUDY    54  42  64 N18       30.00F
BISMARCK       PTSUNNY   65  35  33 NE16G28   30.05F
MINOT          FAIR      69  33  26 NW12      30.06F
MINOT AFB      FAIR      68  34  28 NE9       30.05F
GARRISON         N/A     66  36  32 N10G16    30.06F
WILLISTON      FAIR      71  32  23 VRB3      30.07F
DICKINSON      FAIR      62  32  32 NE6       30.08F
HETTINGER      FAIR      64  33  31 N12G22    30.09F
$$

 *****  OTHER OBSERVATIONS NORTHEAST NORTH DAKOTA  *****

CITY           SKY/WX    TMP DP  RH WIND       PRES   REMARKS
WALHALLA       NOT AVBL
LANGDON        MOCLDY    63  39  42 N20G29    30.03F
CAVALIER       MOCLDY    63  41  45 NE15      30.01F
GRAFTON        CLOUDY    61  41  48 NE17      30.02S
CANDO          NOT AVBL
FORT TOTTEN      N/A     60  39  45 NE7       29.95S
ROLLA          FAIR      64  32  29 NE16      30.06F
RUGBY          NOT AVBL
 ***** THE ABOVE OBSERVATIONS ARE NON NWS ARE NOT QUALITY
        CONTROLLED AND MAY MIS-REPORT RAIN FOR SNOW...
$$

 *****  OTHER OBSERVATIONS SOUTHEAST NORTH DAKOTA *****

CITY           SKY/WX    TMP DP  RH WIND       PRES   REMARKS
COOPERSTOWN    MOCLDY    57  43  58 NE26      30.00F
VALLEY CITY    CLOUDY    54  46  76 N20       30.00S
OAKES          NOT AVBL
GWINNER        CLOUDY    52  46  82 MISG      29.97S
SHEYENNE NWR     N/A     54  46  75 N10       29.95S
BUFFALO        NOT AVBL
WYNDMERE         N/A     54  46  76 N20         N/A
 ***** THE ABOVE OBSERVATIONS ARE NON NWS ARE NOT QUALITY
       CONTROLLED AND MAY MIS-REPORT RAIN FOR SNOW...
$$

  *****  WEATHER ACROSS NORTHERN MINNESOTA  *****

CITY           SKY/WX    TMP DP  RH WIND       PRES   REMARKS
FLAG ISLAND    FAIR      59  37  44 NE18G24   29.98S
WARROAD          N/A     59  46  63 NE13      30.00S
ROSEAU         FAIR      63  45  51 NE23      29.98F
HALLOCK        CLOUDY    63  37  39 NE14      29.99F
THF RVR FALLS  CLOUDY    58  43  57 NE15      29.98S
HALSTAD          N/A     56  45  65 NE18        N/A
FOSSTON        CLOUDY    52  52 100 NE9G17    29.96F
BAUDETTE       CLOUDY    56  41  57 NE16G23   29.96F
WASKISH        CLOUDY    54  45  71 N12       29.95F
CROOKSTON      PTSUNNY   57  43  58 NE12G22   29.98S
$$
  *****  WEATHER ACROSS CENTRAL AND WEST MINNESOTA  *****

CITY           SKY/WX    TMP DP  RH WIND       PRES   REMARKS
BEMIDJI        CLOUDY    48  46  90 NE8       29.94S
PARK RAPIDS    LGT RAIN  53  44  71 N15       29.90S
WADENA         PTSUNNY   57  45  62 NE8G17    29.88S
DETROIT LAKES  FAIR      54  45  71 NE14      29.93S
MOORHEAD       CLOUDY    54  46  76 N14       29.96S
FERGUS FALLS   PTSUNNY   55  46  71 NE8       29.89F
ELBOW LAKE     CLOUDY    56  43  61 NE13      29.89R
MORRIS MN      FAIR      61  48  63 NE14G21   29.86F
STAPLES        PTSUNNY   57  39  51 NE6       29.87F
WHEATON        PTSUNNY   55  48  76 NW18G24   29.92S
$$
  *****  WEATHER ELSEWHERE ACROSS MINNESOTA  *****

CITY           SKY/WX    TMP DP  RH WIND       PRES   REMARKS
DULUTH         CLOUDY    56  45  66 E10       29.86F
INTRNTL FALLS  CLOUDY    53  43  68 NE8       29.95F
ELY            CLOUDY    50  45  81 NE8       29.90S
CLOQUET        FAIR      55  43  62 NE6       29.86F
BRAINERD       CLOUDY    58  42  55 N12       29.87S
HIBBING        PTSUNNY   57  47  69 N12       29.88S
ALEXANDRIA     CLOUDY    55  42  61 NE10      29.88R
SAINT CLOUD    CLOUDY    57  48  72 N9        29.83F
MINNEAPOLIS    CLOUDY    59  46  62 E12       29.80S
$$

  *****  WEATHER ACROSS SOUTH DAKOTA  *****

CITY           SKY/WX    TMP DP  RH WIND       PRES   REMARKS
SIOUX FALLS    CLOUDY    56  47  71 N18G28    29.86S
BROOKINGS      CLOUDY    53  46  77 N20       29.87S
WATERTOWN      CLOUDY    51  45  79 N25       29.89S
HURON          CLOUDY    55  45  68 N25G31    29.93F
SISSETON         N/A     51  49  92 N18       29.92R
ABERDEEN       CLOUDY    51  42  71 N20G26    29.98F
MITCHELL       CLOUDY    57  44  62 N22G30    29.93F
PIERRE         LGT RAIN  58  39  49 N24G30    30.01S
MOBRIDGE       CLOUDY    58  38  47 N16G26    30.02F
RAPID CITY     FAIR      63  34  33 N25G35    30.08F
$$

  *****  SOME WEATHER IN NEARBY STATES *****

CITY           SKY/WX    TMP DP  RH WIND       PRES   REMARKS
GLASGOW MT     FAIR      70  32  24 SE12G21   30.02F
GREAT FALLS MT FAIR      76  40  27 SW12      29.96F
CHEYENNE WY    PTSUNNY   53  31  42 N16G25    30.16F
SCOTTSBLUFF NE CLOUDY    62  32  32 NW21G29   30.10F
OMAHA NE       PTSUNNY   57  43  59 N15       29.84F
DES MOINES IA  PTSUNNY   63  44  50 NW14G22   29.77F
DAVENPORT IA   FAIR      60  53  77 NW9       29.73F
CHICAGO IL     LGT RAIN  61  55  81 CALM      29.73F
EAU CLAIRE WI  CLOUDY    58  47  66 NE13      29.77S
LA CROSSE WI   CLOUDY    59  51  75 N9        29.72S
$$

  *****  SOME NATIONAL WEATHER *****

CITY           SKY/WX    TMP DP  RH WIND       PRES   REMARKS
LA GUARDIA NY  CLOUDY    69  45  41 NE5       29.86F
RALEIGH NC     RAIN      68  68 100 CALM      29.73F FOG
ATLANTA GA     CLOUDY    70  64  81 SW7       29.75S
NEW ORLEANS LA PTSUNNY   81  69  67 W10       29.75F
OKLAHOMA CITY  PTSUNNY   66  46  48 N17G23    29.94F
ALBUQUERQUE NM FAIR      71  35  26 VRB6      30.09F
SALT LAKE CITY PTSUNNY   78  40  25 NW8       30.13F
LOS ANGELES CA CLOUDY    63  58  83 W18       29.97S FOG
BOISE ID       FAIR      81  40  23 SW6       30.06F
SEATTLE WA     FAIR      75  55  49 W8        29.99F
$$

*** WEATHER ACROSS MANITOBA...SASKATCHEWAN AND ONTARIO ***
                ***ONTARIO***

CITY           SKY/WX    TMP DP  RH WIND       PRES   REMARKS
GERALDTON      CLOUDY    52  43  71 N10G17    29.92F
THUNDER BAY    CLOUDY    55  45  67 N7        29.89F
SIOUX LOOKOUT  PTSUNNY   63  37  39 NE7       29.96F
TORONTO        PTSUNNY   72  48  43 NW10      29.79F
BIG TROUT LK   SUNNY     54  25  32 SW8       30.05F
PICKLE LAKE    MOSUNNY   61  23  23 N7        29.98F
DRYDEN         PTSUNNY   59  39  47 NE7G17    29.97F
KENORA         PTSUNNY   61  36  39 NE12G17   29.98F
$$
                *** MANITOBA***

CITY           SKY/WX    TMP DP  RH WIND       PRES   REMARKS
BRANDON        MOSUNNY   68  36  30 VRB3      30.05F
DAUPHIN        SUNNY     72  36  26 VRB5      30.01F
ISLAND LAKE    MOSUNNY   66  28  24 W5        30.02F
PILOT MOUND      N/A     64  34  32 NE13G18     N/A
THE PAS        PTSUNNY   72  32  23 MISG      29.91F
THOMPSON       PTSUNNY   70  30  23 S12G23    29.90F
WINNIPEG       MOSUNNY   66  37  34 NE12G21   30.02F
LYNN LAKE      LGT RAIN  64  41  42 SW16G30   29.79F
CHURCHILL      PTSUNNY   50  37  62 S17       29.89F
GILLAM         MOSUNNY   70  34  26 SW15G23   29.95F
$$
                ***SASKATCHEWAN***

CITY           SKY/WX    TMP DP  RH WIND       PRES   REMARKS
ESTEVAN        MOSUNNY   66  32  28 S10       30.05F
KINDERSLEY     PTSUNNY   77  32  19 S23G30    29.82F
LLOYDMINSTER   PTSUNNY   75  41  29 S28G35    29.72F
PRINCE ALBERT  CLOUDY    72  34  25 SW13G20   29.86F
REGINA         PTSUNNY   73  27  17 S10G17    29.98F
YORKTON          N/A     68  32  26 S7        30.00F



USA.gov is the U.S. government's official web portal to all federal, state and local government web resources and services.